Location: Beaver Meadows
(40.3729°N, 105.6140°W)
Time: 09:21:59
(UTC-06:00)

Iridium 67 - Visible Passes

Search period start: 26 May 2018 00:00
Search period end: 05 June 2018 00:00
Orbit: 776 x 779 km, 86.4° (Epoch: 25 May)

Date Brightness Start Highest point End Pass type
(mag) Time Alt. Az. Time Alt. Az. Time Alt. Az.
26 May 5.5 01:41:31 10° N 01:46:40 73° E 01:46:40 73° E visible
26 May 7.6 03:24:40 10° NW 03:26:44 12° WNW 03:27:07 12° W visible
27 May 6.4 01:08:14 10° NNE 01:13:07 39° E 01:13:10 39° E visible
27 May 6.9 02:49:32 10° NNW 02:53:33 23° W 02:53:38 23° W visible
28 May 7.2 00:35:24 10° NNE 00:39:22 22° ENE 00:39:40 21° E visible
28 May 6.1 02:15:22 10° NNW 02:20:08 41° W 02:20:08 41° W visible
29 May 7.8 00:03:42 10° NE 00:05:28 12° ENE 00:06:11 11° E visible
29 May 5.5 01:41:36 10° N 01:46:39 77° WNW 01:46:39 77° WNW visible
30 May 5.8 01:08:08 10° N 01:13:10 56° E 01:13:10 56° E visible
30 May 7.4 02:50:23 10° NW 02:53:27 16° WNW 02:53:38 16° W visible
31 May 6.7 00:35:01 10° NNE 00:39:37 31° E 00:39:42 31° E visible
31 May 6.7 02:15:47 10° NNW 02:20:10 29° W 02:20:10 29° W visible
01 Jun 7.4 00:02:26 10° NE 00:05:48 17° ENE 00:06:14 17° E visible
01 Jun 5.8 01:41:48 10° NNW 01:46:42 53° W 01:46:42 53° W visible
02 Jun 5.5 01:08:09 10° N 01:13:15 81° NE 01:13:15 81° NE visible
02 Jun 7.8 02:52:11 10° WNW 02:53:18 11° WNW 02:53:43 11° W visible
03 Jun 6.1 00:34:49 10° N 00:39:47 44° E 00:39:47 44° E visible
03 Jun 7.2 02:16:25 10° NW 02:20:08 20° W 02:20:15 20° W visible
04 Jun 7.0 00:01:52 10° NNE 00:06:05 24° ENE 00:06:21 24° E visible
04 Jun 6.4 01:42:07 10° NNW 01:46:49 37° W 01:46:49 37° W visible
04 Jun 7.6 23:29:44 10° NE 23:32:13 13° ENE 23:32:54 13° E visible
